NWS Regional Weather Roundup - New England Area

276
ASUS41 KBOX 200410
RWRBOX

REGIONAL WEATHER ROUNDUP
NATIONAL WEATHER SERVICE BOSTON/NORTON MA
1200 AM EDT SAT APR 20 2019

NOTE:  "FAIR" INDICATES FEW OR NO CLOUDS BELOW 12,000 FEET WITH NO
SIGNIFICANT WEATHER AND/OR OBSTRUCTIONS TO VISIBILITY.

MAZALL-200500-
EASTERN MASSACHUSETTS

CITY           SKY/WX    TMP DP  RH WIND       PRES   REMARKS
BOSTON         CLOUDY    66  61  84 S21       29.81F
BEVERLY        CLOUDY    66  61  84 S15G24    29.80F
LAWRENCE       CLOUDY    67  62  84 VRB7G20   29.80F
BEDFORD        CLOUDY    69  62  78 S14G25    29.78F
BLUE HILL        N/A     62  62 100 S31G40    29.80F
NORWOOD        CLOUDY    67  61  81 S13       29.81F
MARSHFIELD     CLOUDY    66  64  94 S21G32    29.84F
PLYMOUTH       CLOUDY    64  61  90 SW14G26   29.86F
TAUNTON        LGT RAIN  67  63  87 S17G30    29.84F FOG
NEW BEDFORD    LGT RAIN  63  63 100 S22G37    29.84F
$$

MAZALL-200500-
CAPE COD AND THE ISLANDS

CITY           SKY/WX    TMP DP  RH WIND       PRES   REMARKS
FALMOUTH       MOCLDY    63  61  94 S23G33    29.87F
HYANNIS        FOG       56  54  93 S13G22    29.88S VSB 3/4
CHATHAM        CLOUDY    57  56  96 S13G24    29.91S FOG
PROVINCETOWN   MOCLDY    56  56 100 S16G22    29.88S
NANTUCKET      CLOUDY    53  52  96 S15       29.92S FOG
MARTHAS VNYRD  CLOUDY    58  56  93 S20G26    29.88F FOG
$$

MAZALL-200500-
CENTRAL AND WESTERN MASSACHUSETTS

CITY           SKY/WX    TMP DP  RH WIND       PRES   REMARKS
WORCESTER      LGT RAIN  63  62  97 S17G28    29.79F
FITCHBURG      CLOUDY    66  62  87 S8        29.78F
ORANGE         HVY RAIN  66  62  87 S12       29.74F FOG
SPRINGFIELD    LGT RAIN  66  65  97 S16       29.73F
WESTFIELD      LGT RAIN  65  62  90 S16G24    29.74S
NORTH ADAMS    CLOUDY    68  62  81 S14G21    29.69F
PITTSFIELD     LGT RAIN  65  61  87 S12G26    29.71S
$$

RIZALL-200500-
RHODE ISLAND

CITY           SKY/WX    TMP DP  RH WIND       PRES   REMARKS
PROVIDENCE     LGT RAIN  64  62  93 S20G28    29.83F FOG
NEWPORT        LGT RAIN  55  55 100 S15       29.85F VSB 1/2
BLOCK ISLAND   CLOUDY    56  56 100 S22G29    29.84F FOG
SMITHFIELD     LGT RAIN  64  63  96 SW9G21    29.82F
WESTERLY       CLOUDY    57  57 100 S13G24    29.84S FOG
$$

CTZALL-200500-
CONNECTICUT

CITY           SKY/WX    TMP DP  RH WIND       PRES   REMARKS
BRADLEY INTL   LGT RAIN  67  64  90 S22G33    29.74F
HARTFORD       LGT RAIN  66  63  90 S22G32    29.75F
BRIDGEPORT     CLOUDY    62  59  90 S16G25    29.76S
DANBURY        LGT RAIN  64  61  90 SW17G25   29.75F FOG
GROTON         CLOUDY    56  54  93 S18       29.82R FOG
NEW HAVEN      CLOUDY    62  59  90 S17       29.77F
CHESTER        CLOUDY    64  64 100 S20G25    29.80F FOG
MERIDEN        LGT RAIN  65  62  90 S17G29    29.76S
WILLIMANTIC    CLOUDY    66  63  90 S20G28    29.80S
OXFORD         LGT RAIN  64  63  96 S16G23    29.77S FOG
$$

MEZ002-015-021-024-NHZ003-005-008-011-012-014-VTZ005-008-200500-
NORTHERN NEW ENGLAND

CITY           SKY/WX    TMP DP  RH WIND       PRES   REMARKS
PORTLAND ME    CLOUDY    58  54  86 S14G22    29.79S FOG
BANGOR ME      LGT RAIN  56  55  97 S3        29.79R
CONCORD NH     CLOUDY    67  60  78 S10       29.75S
MANCHESTER NH  CLOUDY    68  62  81 S16G22    29.75F
NASHUA NH        N/A     67  66  97 VRB6      29.77F
PORTSMOUTH NH  CLOUDY    68  62  79 S14G23    29.76F
JAFFREY NH     LGT RAIN  66  61  84 S13G23    29.76F
KEENE NH       RAIN      66  63  90 S13G23    29.73F
BURLINGTON VT  LGT RAIN  42  40  92 NW9       29.71F
MT. WASHINGTON LGT RAIN  46  46 100 SW36G61     N/A  VSB 0
$$

NYZ052-076-200500-
EASTERN NEW YORK

CITY           SKY/WX    TMP DP  RH WIND       PRES   REMARKS
ALBANY         LGT RAIN  68  62  81 S18G30    29.63F
NEW YORK CITY  CLOUDY    62  60  93 S20G31    29.74S
$$

ANZALL-200500-
MARINE OBSERVATIONS

STATION/POSITION TIME  TEMP    WIND        PRES    VSBY  WAVE
                       AIR SEA DIR/SP/G                  HT/PER
                 (UTC) (F)     (DEG/KT/KT) (MB)    (MI)  (FT/S)
BOSTON BUOY      0350   58 43  180/ 19/ 21 1009.2F         3/ 7
BUZZARDS BAY     NOT AVBL
NANTUCKET SOUND  0350   52 47  180/ 17/ 21 1012.2S         2/ 4
MASS BAY-STELLWA 0304   50 42  190/ 16/ 17 1008.5F  1 1/2  5/ 5
ISLE OF SHOALS   0300   58     180/ 29/ 29 1008.6F
S OF BLOCK IS    0330      45                N/A           8/ 9
$$

......................KEY.........................
  SKY/WX - SKY CONDITION/PRESENT WEATHER
  TMP    - TEMPERATURE IN FAHRENHEIT
  DWPT   - DEWPOINT IN FAHRENHEIT
  RH     - RELATIVE HUMIDITY IN PERCENT
  WIND   - DIRECTION AND SPEED IN MPH
  PRES   - MEAN SEA LEVEL PRESSURE IN INCHES OF HG
  WCI    - WIND CHILL INDEX
  VSB    - VISIBILITY IN MILES
  HX     - HEAT INDEX
  TC     - TEMPERATURE IN CELSIUS
  VRB    - VARIABLE WIND DIRECTION
  N/A    - NOT AVAILABLE

NWS BOX Regional Weather Roundup - New England Area